When you browse on this site, cookies collect data to enhance your experience and personalize the content and advertising you see.
Visit our Privacy Policy to learn more. By continuing to use the site, you agree to this use of cookies and data.
  • In Hungary
  • List of Countries
  • For 7 days
  • Water Temperature
  • Satellite Maps
  • Weather Map
  • News
  • Weather Widgets
  • user-avatar
    Login

    Hourly Weather Slonovo

    Today, 25 May, Saturday

    Time Temperature Precipitation Wind Pressure Humidity
    00:00 +10°C° 0 mm 2 mps 742 mmHg 91%
    01:00 +10°C° 0 mm 2 mps 742 mmHg 90%
    02:00 +12°C° 0 mm 2 mps 741 mmHg 92%
    03:00 +13°C° 0 mm 2 mps 741 mmHg 91%
    04:00 +13°C° 0 mm 2 mps 741 mmHg 91%
    05:00 +13°C° 0 mm 2 mps 741 mmHg 91%
    06:00 +13°C° 0 mm 3 mps 740 mmHg 88%
    07:00 +13°C° 0 mm 3 mps 740 mmHg 86%
    08:00 +15°C° 0 mm 4 mps 740 mmHg 83%
    09:00 +17°C° 0.2 mm 4 mps 740 mmHg 80%
    10:00 +18°C° 0.2 mm 4 mps 739 mmHg 78%
    11:00 +19°C° 0.2 mm 4 mps 739 mmHg 76%
    12:00 +19°C° 1 mm 4 mps 739 mmHg 75%
    13:00 +20°C° 1 mm 4 mps 738 mmHg 75%
    14:00 +20°C° 1 mm 4 mps 738 mmHg 75%
    15:00 +20°C° 1.2 mm 4 mps 737 mmHg 78%
    16:00 +20°C° 1.2 mm 3 mps 737 mmHg 81%
    17:00 +19°C° 1.2 mm 3 mps 737 mmHg 84%
    18:00 +18°C° 0.1 mm 3 mps 736 mmHg 87%
    19:00 +17°C° 0.1 mm 2 mps 736 mmHg 91%
    20:00 +16°C° 0.1 mm 2 mps 736 mmHg 94%
    21:00 +15°C° 0.4 mm 2 mps 736 mmHg 95%
    22:00 +15°C° 0.4 mm 2 mps 736 mmHg 96%
    23:00 +14°C° 0.4 mm 2 mps 736 mmHg 97%

    Tomorrow, 26 May, Sunday

    Time Temperature Precipitation Wind Pressure Humidity
    00:00 +13°C° 0 mm 2 mps 736 mmHg 97%
    01:00 +13°C° 0 mm 2 mps 736 mmHg 97%
    02:00 +12°C° 0 mm 2 mps 736 mmHg 96%
    03:00 +12°C° 0 mm 2 mps 736 mmHg 96%
    04:00 +12°C° 0 mm 2 mps 736 mmHg 95%
    05:00 +12°C° 0 mm 2 mps 736 mmHg 95%
    06:00 +13°C° 0 mm 2 mps 736 mmHg 87%
    07:00 +14°C° 0 mm 2 mps 736 mmHg 80%
    08:00 +16°C° 0 mm 3 mps 737 mmHg 73%
    09:00 +17°C° 0 mm 3 mps 737 mmHg 66%
    10:00 +18°C° 0 mm 3 mps 737 mmHg 58%
    11:00 +19°C° 0 mm 3 mps 737 mmHg 51%
    12:00 +19°C° 0 mm 3 mps 736 mmHg 50%
    13:00 +20°C° 0 mm 3 mps 736 mmHg 48%
    14:00 +20°C° 0 mm 3 mps 736 mmHg 47%
    15:00 +20°C° 0 mm 3 mps 736 mmHg 48%
    16:00 +20°C° 0 mm 3 mps 736 mmHg 49%
    17:00 +19°C° 0 mm 3 mps 736 mmHg 50%
    18:00 +17°C° 0 mm 2 mps 736 mmHg 58%
    19:00 +15°C° 0 mm 2 mps 736 mmHg 65%
    20:00 +14°C° 0 mm 1 mps 736 mmHg 73%
    21:00 +13°C° 0 mm 2 mps 736 mmHg 75%
    22:00 +13°C° 0 mm 2 mps 736 mmHg 78%
    23:00 +11°C° 0 mm 3 mps 736 mmHg 80%

    Day after tomorrow, 27 May, Monday

    Time Temperature Precipitation Wind Pressure Humidity
    00:00 +11°C° 0 mm 3 mps 736 mmHg 83%
    01:00 +11°C° 0 mm 3 mps 736 mmHg 85%
    02:00 +10°C° 0 mm 3 mps 736 mmHg 88%
    03:00 +10°C° 0 mm 3 mps 736 mmHg 85%
    04:00 +10°C° 0 mm 3 mps 737 mmHg 83%
    05:00 +10°C° 0 mm 4 mps 737 mmHg 81%
    06:00 +11°C° 0 mm 4 mps 737 mmHg 75%
    07:00 +13°C° 0 mm 4 mps 737 mmHg 70%
    08:00 +14°C° 0 mm 5 mps 738 mmHg 64%
    09:00 +14°C° 0.1 mm 5 mps 738 mmHg 63%
    10:00 +15°C° 0.1 mm 5 mps 738 mmHg 62%
    11:00 +15°C° 0.1 mm 5 mps 738 mmHg 61%
    12:00 +16°C° 0.1 mm 5 mps 738 mmHg 59%
    13:00 +17°C° 0.1 mm 6 mps 739 mmHg 57%
    14:00 +19°C° 0.1 mm 6 mps 739 mmHg 55%
    15:00 +17°C° 0.1 mm 5 mps 739 mmHg 60%
    16:00 +17°C° 0.1 mm 5 mps 739 mmHg 65%
    17:00 +17°C° 0.1 mm 4 mps 739 mmHg 70%
    18:00 +15°C° 0 mm 4 mps 739 mmHg 75%
    19:00 +14°C° 0 mm 3 mps 739 mmHg 81%
    20:00 +14°C° 0 mm 2 mps 739 mmHg 86%
    21:00 +14°C° 0.8 mm 2 mps 739 mmHg 89%
    22:00 +14°C° 0.8 mm 2 mps 739 mmHg 92%
    23:00 +14°C° 0.8 mm 2 mps 739 mmHg 95%

    28 May, Tuesday

    Time Temperature Precipitation Wind Pressure Humidity
    00:00 +14°C° 0.3 mm 2 mps 739 mmHg 96%
    01:00 +14°C° 0.3 mm 2 mps 740 mmHg 96%
    02:00 +15°C° 0.3 mm 2 mps 740 mmHg 97%
    03:00 +15°C° 0.1 mm 2 mps 740 mmHg 96%
    04:00 +14°C° 0.1 mm 3 mps 740 mmHg 96%
    05:00 +14°C° 0.1 mm 3 mps 740 mmHg 95%
    06:00 +16°C° 0 mm 3 mps 741 mmHg 92%
    07:00 +17°C° 0 mm 3 mps 741 mmHg 89%
    08:00 +17°C° 0 mm 3 mps 742 mmHg 85%
    09:00 +18°C° 0 mm 3 mps 742 mmHg 80%
    10:00 +20°C° 0 mm 3 mps 742 mmHg 75%
    11:00 +21°C° 0 mm 3 mps 742 mmHg 69%
    12:00 +22°C° 0 mm 3 mps 742 mmHg 65%
    13:00 +24°C° 0 mm 3 mps 742 mmHg 61%
    14:00 +25°C° 0 mm 3 mps 742 mmHg 57%
    15:00 +25°C° 0.1 mm 3 mps 742 mmHg 61%
    16:00 +24°C° 0.1 mm 2 mps 742 mmHg 65%
    17:00 +24°C° 0.1 mm 2 mps 742 mmHg 69%
    18:00 +21°C° 0.2 mm 2 mps 742 mmHg 76%
    19:00 +20°C° 0.2 mm 2 mps 742 mmHg 83%
    20:00 +18°C° 0.2 mm 2 mps 742 mmHg 91%
    21:00 +18°C° 0.9 mm 2 mps 742 mmHg 92%
    22:00 +18°C° 0.9 mm 2 mps 742 mmHg 94%
    23:00 +18°C° 0.9 mm 2 mps 742 mmHg 96%

    29 May, Wednesday

    Time Temperature Precipitation Wind Pressure Humidity
    00:00 +18°C° 0.7 mm 3 mps 742 mmHg 96%
    01:00 +18°C° 0.7 mm 3 mps 742 mmHg 96%
    02:00 +18°C° 0.7 mm 3 mps 742 mmHg 96%
    03:00 +18°C° 0 mm 3 mps 742 mmHg 95%
    04:00 +18°C° 0 mm 3 mps 742 mmHg 95%
    05:00 +18°C° 0 mm 4 mps 742 mmHg 94%
    06:00 +19°C° 0 mm 4 mps 742 mmHg 89%
    07:00 +21°C° 0 mm 4 mps 742 mmHg 83%
    08:00 +22°C° 0 mm 4 mps 742 mmHg 78%
    09:00 +25°C° 0 mm 5 mps 742 mmHg 70%
    10:00 +26°C° 0 mm 5 mps 742 mmHg 62%
    11:00 +27°C° 0 mm 6 mps 742 mmHg 54%
    12:00 +28°C° 0 mm 6 mps 742 mmHg 52%
    13:00 +28°C° 0 mm 6 mps 742 mmHg 49%
    14:00 +28°C° 0 mm 6 mps 742 mmHg 47%
    15:00 +28°C° 0 mm 5 mps 742 mmHg 50%
    16:00 +27°C° 0 mm 5 mps 742 mmHg 52%
    17:00 +27°C° 0 mm 4 mps 742 mmHg 55%
    18:00 +25°C° 0 mm 4 mps 742 mmHg 61%
    19:00 +23°C° 0 mm 4 mps 742 mmHg 67%
    20:00 +21°C° 0 mm 3 mps 742 mmHg 73%
    21:00 +21°C° 0.1 mm 3 mps 742 mmHg 77%
    22:00 +20°C° 0.1 mm 4 mps 742 mmHg 80%
    23:00 +20°C° 0.1 mm 4 mps 743 mmHg 84%

    30 May, Thursday

    Time Temperature Precipitation Wind Pressure Humidity
    00:00 +20°C° 0.1 mm 4 mps 742 mmHg 87%
    01:00 +19°C° 0.1 mm 3 mps 742 mmHg 90%
    02:00 +19°C° 0.1 mm 3 mps 742 mmHg 93%
    03:00 +19°C° 0 mm 4 mps 742 mmHg 92%
    04:00 +20°C° 0 mm 4 mps 742 mmHg 90%
    05:00 +20°C° 0 mm 4 mps 742 mmHg 89%
    06:00 +21°C° 0.8 mm 4 mps 743 mmHg 87%
    07:00 +21°C° 0.8 mm 5 mps 743 mmHg 86%
    08:00 +22°C° 0.8 mm 5 mps 743 mmHg 84%
    09:00 +23°C° 1 mm 5 mps 743 mmHg 83%
    10:00 +23°C° 1 mm 4 mps 743 mmHg 82%
    11:00 +23°C° 1 mm 4 mps 744 mmHg 81%
    12:00 +23°C° 1.5 mm 4 mps 744 mmHg 83%
    13:00 +24°C° 1.5 mm 3 mps 744 mmHg 84%
    14:00 +22°C° 1.5 mm 3 mps 745 mmHg 85%
    15:00 +21°C° 0.6 mm 2 mps 745 mmHg 87%
    16:00 +21°C° 0.6 mm 2 mps 745 mmHg 88%
    17:00 +20°C° 0.6 mm 2 mps 746 mmHg 89%
    18:00 +19°C° 0 mm 2 mps 746 mmHg 90%
    19:00 +18°C° 0 mm 2 mps 746 mmHg 91%
    20:00 +17°C° 0 mm 2 mps 747 mmHg 92%
    21:00 +16°C° 0 mm 2 mps 747 mmHg 93%
    22:00 +15°C° 0 mm 2 mps 747 mmHg 94%
    23:00 +14°C° 0 mm 2 mps 748 mmHg 95%
    Show more